Theta_e
325 329 328 330 329 325 323 322 320 321 323 321 317 315 319 323 315 310 326 339 328 327 333 334 337 342 339 340 340 337 340 343 344 355 360 356 356 363 370 374 377 384 388 387 382 377 375 370 363 361 360 360 361 358 355 353 353 353 355 355 355 358 364 368 367 367 367 365 364 365 366 365 363 362 361 359 357 359 361 360 358 356 355 353 350 348 346
324 327 328 330 329 326 324 324 324 324 324 322 319 321 323 323 321 321 328 335 333 330 332 332 334 338 337 338 339 337 337 339 344 353 353 345 348 358 366 372 376 380 385 390 388 384 381 375 366 362 360 360 360 357 353 352 351 352 354 354 355 357 362 368 367 367 368 367 365 365 366 365 364 362 361 359 357 358 360 360 358 356 355 353 350 349 347
320 326 329 328 327 327 323 322 327 326 324 324 321 322 323 322 322 325 325 328 329 330 331 333 335 337 337 338 340 339 341 341 341 342 340 338 339 348 359 368 373 376 380 386 388 387 384 378 370 363 361 362 360 356 353 351 351 352 354 355 355 356 362 367 368 368 369 368 367 367 366 366 364 362 361 359 358 358 359 359 357 355 355 353 350 349 350
317 324 327 325 326 326 320 319 325 325 322 323 322 324 325 322 321 322 320 318 325 331 332 331 334 336 335 337 337 339 341 341 340 338 339 341 342 346 358 368 372 373 374 379 383 380 375 374 371 365 364 365 362 358 354 351 351 352 355 357 356 356 362 367 369 370 370 370 370 369 368 367 365 363 362 361 360 359 358 358 357 355 354 353 350 350 351
316 322 325 324 323 320 316 319 325 326 326 327 326 327 328 327 324 321 317 319 328 336 334 330 332 332 333 336 337 338 343 348 349 345 340 341 341 346 361 371 371 368 365 369 375 373 369 369 370 366 366 366 364 361 357 353 352 351 355 360 359 357 362 368 370 371 371 373 373 371 370 368 366 365 363 362 362 360 359 357 357 356 354 352 350 351 351
315 322 325 323 320 316 319 326 329 329 329 327 326 326 329 329 328 325 324 326 331 335 333 331 333 333 335 341 341 340 344 351 354 350 345 344 341 338 354 368 369 367 368 370 371 371 368 367 366 365 365 365 365 363 360 357 355 352 354 361 362 361 365 370 372 372 373 374 374 373 372 369 367 366 364 364 363 362 360 358 356 356 354 351 351 351 350
315 320 322 318 316 320 327 332 333 331 330 330 329 329 330 330 329 329 330 331 331 334 333 331 334 338 336 335 337 338 337 341 346 344 342 346 346 341 347 360 368 373 375 374 374 372 369 366 366 365 365 365 365 364 362 361 360 356 356 363 365 365 367 371 374 374 374 374 373 373 372 369 368 367 365 365 363 360 360 357 355 354 353 351 351 350 349
319 318 318 318 320 327 331 333 333 332 332 332 328 326 329 330 329 330 334 335 335 334 333 329 332 336 333 331 334 336 334 334 336 334 335 340 341 344 344 349 370 382 376 372 374 373 369 367 365 364 364 364 364 363 362 363 363 361 363 368 369 368 371 374 375 375 375 374 373 372 370 369 368 366 365 364 362 361 359 357 356 355 354 352 351 349 348
321 317 316 321 324 326 330 332 334 334 334 334 329 325 329 332 331 332 336 338 338 337 335 333 330 331 332 332 335 333 329 333 334 331 334 334 333 339 341 342 368 382 374 370 374 373 370 367 364 363 364 364 365 364 362 363 363 364 369 372 371 371 375 377 376 375 375 374 372 370 368 367 366 364 364 363 361 360 358 356 356 356 355 353 351 349 347
323 320 317 321 321 320 327 333 338 338 334 335 336 329 329 334 335 336 339 339 339 341 340 339 339 338 336 333 333 332 329 330 330 328 331 332 331 336 337 335 359 377 374 370 373 374 371 368 364 364 365 364 366 365 363 363 364 367 373 374 373 374 377 378 376 374 373 373 371 368 367 365 363 362 361 361 360 359 357 356 355 355 354 353 351 349 347
324 322 319 321 320 322 333 339 340 337 333 335 337 327 326 338 344 341 342 341 341 343 343 343 346 347 344 338 332 331 330 329 330 330 331 331 329 331 335 332 345 368 373 370 372 375 373 369 366 366 366 366 367 366 365 364 364 368 374 376 375 376 377 376 375 373 372 371 370 367 365 363 361 360 359 358 358 358 356 355 354 353 352 351 350 348 346
325 325 322 322 322 329 342 342 336 335 334 336 333 322 324 343 349 342 342 343 342 346 347 346 346 347 347 345 338 334 332 329 331 333 333 336 334 333 336 329 332 358 371 372 375 376 372 369 367 366 366 367 367 366 366 366 364 368 374 376 377 376 375 375 374 372 370 370 369 366 364 362 360 359 357 356 356 355 355 354 353 352 351 350 348 346 345
324 325 323 322 324 334 343 340 334 336 336 332 325 323 333 348 346 339 341 342 342 346 348 347 347 346 345 344 339 336 333 331 335 338 339 343 340 334 336 332 336 360 372 374 373 372 370 368 366 365 367 368 367 367 367 368 367 368 373 377 377 376 374 375 373 371 370 369 368 366 363 361 359 358 357 355 354 354 353 352 351 351 350 348 347 346 344
321 323 323 321 325 334 339 337 334 334 332 327 328 335 344 344 339 338 341 341 343 345 346 347 348 346 342 340 336 336 338 339 343 344 345 350 350 349 357 358 359 366 373 372 371 370 369 368 365 365 367 368 368 369 370 370 370 370 374 377 377 375 375 373 371 369 369 368 367 365 363 361 359 357 356 354 353 352 351 351 350 349 347 345 344 344 343
321 321 321 320 324 335 337 335 336 335 333 334 340 345 342 339 339 340 341 342 344 344 343 345 346 344 343 341 342 346 349 348 348 347 351 360 362 361 367 368 364 367 371 371 368 366 366 366 365 366 370 370 371 372 372 372 372 372 375 377 375 374 373 371 369 368 367 366 366 364 363 360 358 355 354 352 351 350 349 348 347 346 345 343 342 342 342
321 317 320 324 330 337 337 335 337 338 338 341 344 342 340 341 343 342 343 345 346 344 345 346 345 345 345 344 347 352 352 349 352 354 357 364 365 361 362 365 362 363 369 368 364 361 363 364 365 368 371 371 372 373 374 372 373 374 376 375 374 372 370 368 368 366 366 366 364 363 362 359 356 354 353 351 351 349 347 346 345 344 343 342 341 342 342
329 325 329 334 338 339 337 336 337 338 339 340 340 339 342 344 343 343 343 344 343 344 347 347 345 346 346 344 346 349 347 347 352 354 352 353 356 355 356 361 362 362 365 366 364 365 368 368 369 371 370 370 373 375 375 373 373 375 374 372 371 369 367 367 366 365 365 364 362 360 359 357 355 353 352 351 350 348 346 344 343 343 342 342 342 343 343
341 338 339 339 339 337 335 335 336 336 336 338 339 341 343 342 341 343 343 341 341 343 347 350 350 348 345 347 350 350 347 346 349 353 352 350 350 349 350 357 362 361 361 363 366 372 374 373 374 374 372 373 375 375 374 374 373 372 370 369 367 366 365 365 363 362 362 361 359 357 356 355 354 353 352 351 349 346 345 344 343 343 343 343 343 343 343
342 343 342 338 337 338 336 335 336 335 334 336 338 341 341 340 341 343 343 342 343 344 348 352 352 350 349 352 354 354 353 351 351 356 359 358 357 357 358 361 362 362 361 363 367 372 374 374 374 374 372 372 372 372 372 371 370 368 367 366 365 364 363 362 360 360 359 358 356 355 354 354 353 351 350 349 347 346 345 344 344 344 344 344 345 345 345
342 343 344 340 336 337 336 336 336 335 334 336 337 338 338 339 341 342 342 343 345 346 348 349 350 351 351 352 353 354 356 357 358 360 363 365 364 363 362 361 361 363 366 367 368 370 372 372 371 369 368 368 367 367 368 368 366 365 364 363 363 362 360 359 358 357 355 355 354 352 351 351 351 350 349 348 346 345 345 345 345 345 344 345 345 345 344
343 342 342 341 338 338 336 335 334 334 334 335 335 335 336 336 337 338 338 340 341 342 344 346 347 348 347 348 350 349 350 355 358 359 361 363 363 362 361 358 355 357 360 361 362 363 363 365 364 363 362 362 362 363 364 363 363 362 360 360 360 358 357 356 355 354 353 353 351 347 344 344 344 345 346 346 344 343 342 343 344 344 344 345 345 343 343
344 342 342 343 343 340 337 333 332 332 332 332 332 332 333 333 333 334 333 333 334 335 336 340 344 346 345 345 348 350 349 352 355 356 357 357 357 359 360 358 355 355 356 356 356 356 354 355 357 357 357 357 358 359 360 360 360 359 358 358 356 355 354 353 352 351 351 351 348 343 341 341 340 339 341 342 342 340 340 340 341 342 343 344 342 342 342
341 340 340 341 340 339 336 334 333 332 331 331 330 330 330 330 329 329 329 329 329 329 330 332 337 343 346 346 349 353 353 349 350 352 352 352 353 355 356 356 355 356 355 354 355 354 353 353 353 353 354 356 357 358 358 358 358 358 357 356 354 353 353 351 350 349 349 349 347 343 339 339 338 336 335 336 337 337 338 338 338 339 340 342 341 341 341
339 338 338 337 335 334 333 331 331 331 331 330 330 329 329 328 327 326 326 326 326 327 327 327 329 335 338 340 344 349 348 344 346 349 348 347 349 351 352 354 355 356 355 355 355 355 354 354 355 355 355 356 357 358 358 358 358 357 356 354 353 352 350 348 348 348 348 348 347 343 340 338 337 335 333 331 330 332 334 335 336 337 338 339 339 340 340
338 336 334 333 332 330 329 328 328 329 329 328 328 328 328 328 327 327 327 326 325 324 324 325 327 331 333 333 335 340 341 340 342 345 346 346 346 348 350 352 354 355 355 354 354 355 355 355 356 357 357 357 357 357 357 357 357 356 353 351 350 349 348 347 347 347 347 347 346 345 343 341 339 337 335 332 329 327 328 330 333 334 336 337 337 337 338
336 334 332 331 330 329 328 327 326 327 328 327 326 327 327 327 328 327 326 325 324 324 324 326 327 329 330 330 331 334 336 337 339 340 341 342 343 345 348 350 352 353 353 353 353 353 353 354 355 355 355 355 355 355 356 356 355 353 351 350 349 348 347 348 348 347 347 347 346 344 343 343 342 341 339 336 332 328 327 328 329 330 332 334 335 335 335
334 334 333 333 331 329 327 326 325 326 326 325 325 325 325 325 327 327 326 325 324 324 325 326 326 327 328 327 328 329 332 335 337 337 338 338 339 340 343 346 349 351 352 353 354 353 353 353 353 353 353 353 352 353 354 354 352 350 349 348 348 348 348 348 348 347 347 346 345 344 342 342 342 342 341 339 335 332 330 330 329 329 328 329 330 331 331
334 333 333 333 332 329 327 326 326 325 324 323 323 322 322 323 324 324 324 324 324 324 325 325 325 326 326 326 325 325 327 331 334 335 337 338 338 339 339 342 345 349 350 351 352 353 353 353 353 352 352 351 350 351 351 351 350 348 347 347 346 346 347 347 346 346 346 345 344 342 342 342 341 341 341 339 337 335 334 332 331 330 327 325 326 328 328
331 330 330 331 331 329 328 328 327 326 325 324 322 321 321 322 323 323 322 324 325 325 324 325 326 325 325 325 325 324 324 328 332 333 333 335 338 340 340 339 341 345 348 348 349 350 351 352 352 352 351 350 350 350 350 349 349 347 347 345 345 344 345 344 343 343 343 342 342 341 341 341 340 339 339 338 338 337 336 333 332 330 326 323 324 325 325
326 326 326 327 327 326 325 326 326 326 326 326 325 323 322 322 323 324 324 325 326 326 324 323 324 324 323 324 325 324 323 326 331 333 331 331 333 337 339 339 338 342 345 346 346 346 348 349 350 350 349 349 349 349 349 348 348 347 345 345 343 343 342 342 341 341 341 341 341 341 340 340 340 340 339 338 337 336 334 333 333 330 326 324 324 324 323
324 325 325 325 324 324 325 326 326 325 325 325 326 326 325 324 325 326 325 324 325 326 326 325 325 325 325 325 326 325 324 326 330 333 332 330 330 333 336 337 337 340 343 344 343 343 344 345 347 348 347 346 346 346 347 346 346 345 344 343 341 341 341 341 341 341 341 340 340 340 340 340 340 339 338 337 336 335 334 334 333 331 328 327 327 326 323
324 324 325 326 325 324 325 325 324 324 324 324 324 325 324 325 326 326 325 324 325 327 328 328 328 329 328 328 328 327 325 325 329 332 331 329 331 333 336 336 335 336 340 342 342 342 343 343 343 344 345 345 345 344 343 343 342 342 342 340 339 340 339 339 340 340 340 339 339 338 338 339 338 337 337 336 334 334 334 335 334 332 330 329 329 326 324
323 324 325 326 326 325 326 325 324 324 323 323 323 324 324 324 324 325 326 327 328 329 330 330 329 330 330 330 330 330 328 327 330 333 332 331 332 334 337 338 338 339 341 342 341 342 341 340 340 341 342 343 343 342 341 341 340 339 339 339 338 337 336 336 338 338 337 336 337 336 336 335 335 335 335 334 334 334 335 335 335 332 331 330 329 326 324
324 324 324 325 325 325 325 324 324 324 323 322 322 323 323 323 323 323 324 326 328 329 330 329 328 329 330 331 330 330 330 332 334 336 335 334 333 333 335 336 338 340 341 340 339 339 339 339 339 339 338 339 340 340 339 339 337 337 337 337 335 333 333 335 336 336 335 335 335 334 334 334 334 334 333 333 333 334 334 335 334 333 331 331 330 327 325
323 323 323 323 323 323 323 322 323 323 322 322 322 322 322 322 323 324 324 324 326 328 328 328 327 328 329 329 330 331 332 333 335 335 333 331 330 331 333 335 337 338 339 338 337 338 338 337 337 338 337 336 336 336 336 336 336 336 337 335 333 332 332 334 334 334 334 334 335 334 334 334 334 334 333 332 332 333 333 333 333 332 332 331 330 328 326
322 322 323 322 321 321 321 321 322 322 322 322 323 322 323 323 323 324 325 325 325 326 326 325 325 326 327 328 329 330 330 331 332 332 331 330 330 331 332 333 335 337 337 336 336 336 337 337 336 335 335 335 334 334 334 334 335 336 336 335 334 333 333 334 334 334 334 334 334 333 334 334 333 333 332 332 332 331 331 331 331 330 330 331 330 328 325
321 321 322 322 321 321 321 322 323 323 323 323 323 323 324 324 324 324 325 325 326 326 326 326 325 325 325 326 326 327 327 328 329 330 330 330 330 331 332 333 334 335 336 337 335 334 335 336 334 333 335 335 334 333 333 334 335 335 334 334 334 333 333 333 333 333 333 333 334 334 333 333 333 332 332 331 331 329 328 329 329 328 329 330 329 327 324
320 321 321 321 321 321 321 322 323 322 322 323 323 324 324 324 324 325 326 326 326 326 326 326 326 326 325 326 326 327 327 328 328 329 330 331 332 333 334 335 335 335 336 336 334 333 333 334 332 333 335 335 333 332 332 332 333 332 332 332 332 331 331 332 332 333 333 334 334 334 332 331 330 330 329 329 328 327 326 327 327 328 328 329 329 327 325
321 321 321 321 322 323 323 322 323 323 323 323 323 324 324 324 324 325 326 326 326 327 327 327 327 327 327 327 328 328 328 329 329 330 331 332 333 333 333 333 333 333 333 333 332 332 333 333 332 332 333 333 332 331 330 331 331 331 331 331 331 331 331 332 332 332 332 332 332 330 329 328 328 328 327 327 327 327 326 325 326 326 326 327 327 327 326
322 322 322 322 322 322 322 322 322 323 322 323 323 323 324 324 325 326 326 326 326 327 327 327 328 329 329 329 329 329 329 328 329 330 330 331 331 332 332 332 331 331 332 332 332 331 332 333 333 332 331 330 330 330 329 330 330 330 330 330 330 330 330 330 330 330 329 328 328 327 327 327 327 327 326 326 326 326 324 323 323 323 322 322 323 324 324
322 322 322 322 322 322 322 322 322 322 323 323 323 323 323 324 325 325 326 326 326 326 326 327 328 328 328 328 328 328 328 327 328 329 330 331 331 331 330 330 330 330 331 331 330 329 330 331 332 332 331 331 330 329 328 328 329 329 329 329 328 327 328 328 328 327 327 326 326 325 325 325 325 324 324 323 323 322 322 321 320 320 319 319 320 320 320
322 322 322 322 322 322 323 322 323 323 323 323 323 323 323 324 324 324 324 325 325 325 326 326 326 327 327 326 327 328 328 328 328 329 330 331 331 330 330 330 330 330 330 330 329 329 330 330 330 331 331 332 331 329 328 328 328 328 328 327 326 326 326 326 326 326 325 324 323 323 323 323 322 321 321 320 320 320 320 320 319 319 318 318 318 318 317
321 321 321 322 321 322 322 322 322 322 322 322 322 322 322 322 323 323 323 324 324 324 324 325 325 325 326 326 326 327 328 328 328 329 329 329 329 329 329 330 331 330 330 329 329 329 330 330 330 330 331 331 329 328 328 327 327 327 326 326 325 326 325 325 324 325 324 322 322 321 321 320 320 320 319 320 319 319 318 318 318 317 316 316 316 316 316
321 320 321 321 321 321 321 321 321 321 321 321 321 321 320 321 321 322 322 322 322 322 323 323 323 324 325 325 326 327 327 327 327 328 328 328 328 328 328 329 329 329 329 328 329 329 330 330 330 329 328 327 327 326 327 327 326 325 325 325 325 325 324 323 323 323 322 321 321 321 320 320 320 319 319 319 318 317 317 316 316 315 315 314 314 313 313
321 320 320 320 320 320 320 320 320 320 320 319 319 319 319 320 320 320 320 321 321 320 321 321 321 322 323 323 324 324 325 325 325 326 327 327 326 326 326 326 326 326 327 327 328 328 327 327 327 326 324 323 323 324 325 325 324 323 324 324 323 323 323 322 322 321 321 320 320 320 320 319 319 318 317 317 316 315 315 315 314 314 314 313 313 313 313
320 320 319 319 319 319 319 318 319 319 319 318 319 319 318 318 318 319 319 319 319 318 318 319 319 319 319 319 320 321 321 322 322 323 324 325 325 326 326 326 325 325 326 327 327 326 324 323 323 323 322 321 321 322 324 323 321 321 321 321 320 320 321 320 320 320 320 319 319 319 318 318 317 317 316 316 316 315 314 314 314 314 314 313 313 313 312
319 319 319 319 319 319 318 317 318 318 319 320 321 321 318 317 317 317 318 318 318 318 317 317 317 318 318 318 318 318 318 319 319 318 319 321 323 324 323 323 322 323 324 326 327 325 323 321 320 320 320 319 320 321 322 322 320 319 319 319 318 318 319 318 319 319 318 318 318 318 317 317 317 317 316 315 315 315 314 314 314 314 314 313 313 312 312
320 319 318 318 318 318 318 319 319 319 320 320 321 320 318 317 317 316 316 317 317 318 317 317 317 317 317 317 317 316 317 318 317 316 316 318 319 320 321 321 320 319 321 324 325 324 322 320 320 319 318 318 319 320 321 321 320 319 318 318 317 317 317 317 317 317 317 317 317 316 316 316 316 316 316 315 315 315 315 315 314 314 314 313 312 312 311
320 319 318 318 318 318 319 319 320 320 320 319 318 318 317 317 317 317 316 316 317 317 317 317 317 316 316 317 317 316 316 316 316 316 316 316 316 316 318 320 319 318 318 320 322 323 322 322 321 319 318 318 320 321 321 321 320 320 319 318 317 317 317 317 317 317 317 317 317 316 316 316 316 316 316 316 315 315 315 314 314 314 314 313 313 312 311
321 321 321 320 318 318 318 319 319 319 319 318 318 317 317 317 317 317 317 316 317 317 316 316 316 316 316 316 317 316 316 316 316 316 316 315 314 314 315 316 317 317 317 317 319 321 323 323 323 322 321 321 322 322 321 321 321 321 321 320 319 318 317 317 317 317 317 317 317 316 316 316 316 316 316 315 315 315 315 314 314 314 314 313 313 312 312
323 324 324 321 318 317 318 318 318 318 317 317 317 317 316 316 317 317 317 316 316 316 316 316 316 316 316 316 316 316 316 316 316 316 316 315 315 315 315 315 315 316 316 316 317 319 321 322 323 323 323 323 322 322 321 321 321 321 320 320 320 319 318 318 317 317 317 317 317 317 316 316 316 316 316 316 315 315 315 315 315 314 314 314 313 313 312
321 321 320 319 318 317 317 317 317 317 316 316 316 316 316 316 316 316 316 316 316 316 316 316 316 315 315 316 316 316 316 316 316 315 315 315 315 315 315 315 315 315 316 316 317 317 318 318 319 321 322 321 321 321 320 320 320 321 321 321 320 320 319 318 318 318 317 317 317 317 316 316 316 316 316 315 315 315 315 315 315 315 314 314 314 313 313
Wind_Speed
24 23 21 21 19 17 18 20 21 22 23 24 22 20 19 16 11 11 11 10 12 14 15 16 12 11 13 11 10 11 10 10 7 5 10 14 15 14 11 10 10 9 9 11 13 15 15 18 23 26 28 31 32 30 32 34 33 33 35 35 35 35 35 34 35 37 38 38 39 39 36 35 35 35 34 34 33 33 33 32 31 30 30 32 34 35 36
25 26 24 24 22 18 19 20 19 20 22 24 23 21 22 20 17 18 17 13 12 13 15 19 18 13 11 10 8 11 12 11 8 5 10 15 16 15 12 10 11 9 9 10 11 13 13 14 19 23 25 29 31 31 31 33 34 33 34 36 35 35 35 35 36 37 37 36 36 36 35 36 37 36 35 34 33 33 34 33 31 29 29 31 32 33 34
15 21 24 25 25 21 20 19 19 21 21 23 24 21 20 20 19 22 22 14 11 12 13 15 17 15 13 11 9 10 12 12 12 12 13 16 16 15 16 14 12 11 10 10 11 12 12 13 17 21 24 26 30 31 31 33 34 33 33 36 36 35 35 35 36 36 36 35 34 34 34 35 37 36 35 33 32 31 31 32 32 30 29 30 31 30 31
12 17 21 25 25 22 23 22 21 23 23 21 20 18 17 17 17 18 18 14 10 10 12 14 16 16 16 16 15 13 11 13 16 16 17 17 14 11 15 14 12 13 14 13 13 14 14 15 18 21 22 23 26 30 32 33 35 33 32 35 37 35 34 35 36 36 36 34 32 32 33 33 34 34 33 31 29 28 27 28 30 30 28 30 30 28 27
11 15 16 17 18 18 18 18 21 22 20 19 19 14 14 18 17 14 13 11 8 7 10 15 16 16 16 16 15 14 12 11 12 15 18 18 14 10 13 15 15 15 15 14 14 15 15 17 21 24 24 23 25 30 31 31 34 33 31 33 36 35 33 35 36 36 34 32 30 30 30 30 30 29 29 28 26 24 23 23 26 28 27 28 29 28 26
10 14 15 13 13 14 12 12 17 20 20 21 20 16 17 20 18 14 12 13 11 8 10 14 15 13 12 12 11 13 12 8 6 9 12 13 14 13 11 15 16 15 13 13 14 16 19 24 27 29 28 27 26 27 28 27 31 33 30 31 34 34 32 34 34 33 32 30 28 27 27 26 26 26 25 25 24 22 21 22 24 25 25 25 27 27 27
9 11 14 14 13 13 12 11 13 16 19 21 21 19 21 22 18 17 17 15 15 14 12 13 11 9 12 13 11 12 14 13 11 10 11 10 12 11 9 12 15 15 14 14 14 16 22 26 27 26 27 28 27 27 27 26 28 30 27 28 32 32 31 31 31 30 29 28 26 25 24 24 24 24 23 23 23 21 21 23 24 24 23 24 25 28 28
9 9 11 13 10 10 13 14 14 15 16 19 19 18 20 22 21 17 9 6 8 13 15 16 12 10 13 15 12 13 15 16 16 17 16 15 13 11 9 9 12 15 16 16 17 20 23 25 25 26 28 28 27 28 29 26 26 26 23 25 30 30 29 28 28 28 28 27 25 25 24 23 23 23 22 22 23 22 21 21 21 21 21 22 24 26 26
10 10 10 10 9 10 13 13 11 10 10 11 13 12 13 16 17 13 10 10 11 9 9 15 16 14 14 12 10 15 19 18 18 20 20 20 18 13 12 12 10 16 20 20 22 23 24 26 27 27 28 28 27 28 28 26 26 24 22 24 28 29 27 27 27 27 27 26 26 25 24 23 21 21 22 21 22 23 21 19 19 18 18 19 19 21 23
8 9 10 10 10 11 12 9 5 4 4 4 5 6 6 6 8 10 8 8 9 12 12 9 6 7 12 11 9 14 20 21 22 22 22 21 20 16 15 15 11 17 23 24 25 28 27 27 29 29 28 28 27 26 26 26 26 23 21 24 27 27 27 26 27 28 27 26 26 25 24 23 21 20 21 21 20 20 20 19 18 18 18 18 18 18 18
8 9 10 9 9 8 7 5 4 6 2 5 5 6 5 2 6 9 8 8 9 10 12 12 9 5 5 7 8 12 18 21 20 20 20 21 22 20 19 20 15 15 25 27 27 28 27 26 29 30 30 30 27 25 25 27 26 23 22 25 26 27 27 26 27 28 27 27 27 25 24 23 22 20 20 19 19 19 19 18 18 17 18 18 17 16 16
7 9 8 7 7 4 5 6 5 6 4 3 2 8 4 5 8 9 8 8 9 9 10 9 7 6 6 6 8 11 15 17 16 15 17 17 19 20 21 25 25 18 24 25 23 24 25 26 29 31 31 29 27 25 25 27 26 24 25 27 28 27 27 26 26 26 26 26 26 25 24 24 22 20 19 18 18 18 17 16 15 14 14 15 15 15 15
8 9 8 7 7 5 6 6 5 4 4 4 7 7 1 5 7 7 8 7 8 8 9 7 5 7 8 10 13 16 15 14 11 9 7 7 12 17 18 23 25 19 21 22 22 24 26 28 30 30 29 26 24 24 25 24 24 25 28 30 29 28 27 25 25 24 24 25 25 24 25 24 22 21 20 18 18 18 15 14 13 11 10 10 11 11 12
9 9 9 8 6 5 8 7 6 6 7 6 5 2 3 5 6 8 8 9 9 9 8 7 7 9 12 14 17 18 16 12 8 5 4 9 13 12 4 7 11 13 14 17 20 22 24 27 28 29 27 24 22 23 23 22 24 27 29 30 30 29 29 27 27 26 26 26 25 25 26 25 23 23 22 19 19 19 16 15 14 11 9 9 8 7 9
9 9 10 9 6 5 9 9 8 8 6 2 2 3 4 5 7 8 8 8 9 9 10 9 10 11 12 14 13 12 13 15 14 7 1 7 9 7 6 11 12 11 9 10 14 18 21 25 25 26 25 22 21 21 20 22 26 28 29 30 31 31 30 29 28 27 27 27 26 25 27 26 24 24 22 19 19 18 16 16 16 13 10 9 8 7 9
9 10 9 6 3 4 9 8 5 4 2 3 3 3 4 5 6 7 6 8 10 11 11 11 11 11 11 9 6 8 10 12 14 11 8 8 8 4 3 7 10 11 9 8 11 14 18 21 22 23 25 23 21 19 21 25 28 29 30 31 31 30 29 28 26 26 26 26 24 24 25 24 22 23 21 19 18 18 16 17 16 12 9 8 9 10 11
5 4 2 1 2 5 8 6 4 6 7 6 4 3 4 5 6 7 7 9 11 13 14 12 9 8 8 5 6 8 7 9 10 9 10 11 9 6 4 3 7 9 8 8 8 10 13 17 18 21 26 25 20 18 22 27 29 29 30 30 29 29 27 26 25 25 24 22 21 22 23 22 22 22 20 20 20 19 17 17 15 13 11 10 12 13 13
6 4 5 6 5 5 6 5 5 7 8 6 6 5 4 5 6 8 8 8 8 10 12 12 8 6 6 6 9 8 6 6 6 6 7 7 7 7 6 4 2 7 9 9 9 11 14 18 20 20 23 26 22 20 24 28 28 29 29 29 28 27 26 25 25 25 23 21 20 21 21 19 20 20 19 19 21 19 16 15 14 13 13 13 13 13 13
5 3 1 6 8 6 5 6 6 6 9 8 6 6 6 6 7 9 9 9 9 9 10 11 11 9 8 9 9 9 7 7 8 7 6 5 4 5 2 3 1 4 7 8 11 13 14 19 22 22 23 25 24 23 25 26 26 28 29 28 27 26 25 25 24 23 21 21 20 20 18 17 17 17 17 18 19 17 14 13 13 12 12 13 14 14 12
4 5 8 4 13 13 10 10 9 9 9 11 8 8 8 8 9 11 11 11 11 12 12 13 13 13 13 12 11 10 10 9 9 8 7 8 10 10 10 10 9 6 5 9 11 10 11 16 22 22 22 23 23 22 22 22 25 27 27 26 24 23 23 23 21 21 21 21 20 18 16 15 16 16 17 17 16 15 13 12 12 13 14 14 14 13 11
3 4 8 3 14 15 14 14 13 13 13 12 11 11 12 12 13 14 15 15 14 14 14 14 14 14 14 13 13 12 11 10 10 10 11 13 14 13 15 18 16 10 8 10 12 11 13 16 20 21 22 22 22 21 20 21 23 25 25 25 23 22 21 21 20 21 21 20 19 19 18 18 18 18 16 15 14 14 11 9 10 11 13 15 15 13 11
2 1 4 2 7 10 12 14 15 15 15 15 16 16 16 16 15 15 17 17 16 16 16 15 14 12 11 12 12 12 10 8 9 10 11 13 13 12 15 18 18 14 14 14 15 15 16 18 20 21 21 21 20 20 20 21 24 26 25 23 22 21 20 19 20 20 19 18 19 20 20 21 22 21 17 13 13 13 10 8 7 5 7 10 12 11 12
0 2 2 1 6 9 10 12 14 14 13 14 17 17 17 16 16 16 17 16 16 17 17 17 15 12 9 8 8 7 7 8 9 10 12 13 13 12 14 17 16 15 16 17 16 15 15 17 19 20 20 20 19 19 19 20 22 24 23 21 20 18 17 18 19 18 18 18 20 21 21 22 24 24 22 18 14 12 10 7 6 4 5 8 10 11 14
2 1 3 4 8 11 11 12 13 12 11 13 15 16 16 16 15 16 17 16 16 16 16 18 18 15 12 11 9 7 7 9 10 10 13 16 16 16 17 18 16 14 15 16 16 16 17 18 19 19 20 19 18 18 19 19 20 21 20 19 18 17 18 19 18 17 18 19 19 20 20 21 21 23 23 20 16 13 11 8 7 6 7 10 12 12 13
1 5 6 7 10 12 12 11 12 12 11 12 13 14 15 15 15 15 15 15 15 16 15 15 17 18 15 14 13 12 11 11 12 12 13 15 16 16 17 18 17 15 15 16 16 17 18 18 19 19 19 18 17 17 17 17 18 18 17 18 18 20 22 21 17 16 18 17 16 16 17 18 18 19 19 17 15 14 13 11 10 10 10 11 13 13 12
1 6 8 8 9 10 9 9 10 11 11 11 11 12 13 13 13 15 15 13 13 15 14 13 13 14 15 14 14 14 14 15 16 16 14 13 14 15 16 17 17 17 17 17 17 17 18 17 17 18 17 16 16 16 16 15 15 14 16 19 22 23 23 21 18 17 17 16 15 15 15 15 16 17 16 16 16 16 15 13 11 11 12 13 14 14 13
2 4 7 9 10 10 10 10 9 9 9 10 10 11 11 11 11 12 14 14 14 14 14 13 13 12 13 15 16 16 17 18 17 16 14 13 14 16 16 17 18 18 17 17 16 16 16 16 16 16 16 15 15 15 15 15 15 16 20 23 23 22 22 21 20 17 16 16 16 15 15 15 15 16 16 16 17 17 15 13 12 11 12 13 14 13 13
6 2 4 9 10 10 11 11 10 10 11 11 10 10 10 11 12 13 14 14 13 12 13 15 16 13 12 14 15 15 16 17 16 14 14 15 16 16 17 17 17 17 16 16 15 14 14 15 15 15 15 14 14 15 14 15 16 19 21 21 21 20 20 20 19 17 17 18 17 16 17 18 17 16 17 16 15 15 15 14 14 13 12 12 13 13 13
9 8 7 9 10 11 11 10 10 11 12 11 11 10 10 11 13 13 13 13 12 12 12 13 15 14 13 13 14 13 13 14 14 14 14 15 16 17 16 14 15 17 16 15 14 12 12 12 13 14 13 12 13 14 14 15 16 16 16 17 18 18 17 18 20 19 18 18 18 17 17 17 16 17 17 16 16 16 15 15 15 15 14 14 14 13 12
8 9 10 11 12 12 11 10 10 11 11 11 11 12 12 12 12 11 11 11 10 11 11 11 12 13 13 12 11 11 11 11 12 13 14 15 16 17 18 15 13 13 13 13 12 11 10 11 11 11 11 11 12 12 13 13 15 15 15 16 16 16 17 19 20 19 17 17 17 17 15 14 14 15 15 15 15 15 14 16 18 15 13 13 12 11 12
9 12 13 13 13 13 12 10 9 10 10 10 11 12 12 13 12 10 10 9 8 8 10 11 11 11 10 9 10 11 12 13 13 14 15 17 18 18 19 17 12 10 9 10 11 10 10 11 10 9 9 10 12 12 11 12 14 17 18 18 18 18 19 20 19 17 16 16 16 15 13 13 13 13 12 13 13 12 13 18 17 14 12 12 10 10 13
10 12 14 13 11 11 11 10 9 10 11 11 12 12 11 11 11 9 8 6 6 7 8 8 8 7 6 7 9 9 10 11 13 13 14 16 17 17 17 15 13 11 10 10 10 10 10 10 10 8 8 10 11 12 12 13 16 19 19 20 21 21 19 17 16 15 15 15 14 13 12 12 13 13 12 11 11 10 13 15 14 12 12 11 10 12 16
10 11 11 10 10 10 11 10 9 10 11 10 10 10 9 9 9 8 7 6 4 4 5 6 6 5 4 4 4 4 4 6 7 7 8 11 13 14 15 13 11 10 9 8 8 7 7 8 8 7 9 10 10 11 12 14 16 18 17 18 20 19 16 14 15 15 13 12 12 11 10 10 11 11 10 9 9 10 12 12 12 12 12 11 11 13 17
10 8 7 7 7 8 9 8 8 8 9 9 9 9 8 8 8 8 7 6 5 5 5 3 2 3 2 2 3 3 2 2 3 3 6 8 10 12 12 11 9 9 10 9 8 6 6 6 7 5 4 6 8 12 14 15 17 17 17 17 17 14 12 12 14 13 12 11 10 9 9 9 8 9 9 9 10 10 11 12 13 12 11 12 13 13 15
8 7 7 7 7 8 8 7 8 8 8 8 8 8 8 8 9 9 9 9 8 6 6 5 3 3 2 2 2 1 2 3 3 3 4 5 7 9 9 7 7 9 11 11 9 7 5 4 4 6 4 2 6 10 11 12 14 14 15 15 14 11 10 10 11 10 10 11 11 9 9 8 8 8 9 9 10 10 11 13 13 12 12 14 14 15 15
7 7 6 7 8 9 8 7 8 8 8 7 7 7 8 9 9 9 9 10 10 9 8 6 5 4 3 1 1 3 3 4 6 5 2 1 2 3 2 0 2 4 6 7 8 8 5 2 1 4 3 1 4 4 6 9 11 12 12 12 11 11 10 10 9 10 11 11 10 10 11 11 10 10 10 10 10 10 9 10 10 9 12 16 16 17 18
8 8 7 7 7 8 7 7 6 7 7 7 7 8 8 7 8 9 10 11 10 10 9 8 6 4 3 3 5 5 4 4 6 5 3 1 1 1 2 3 3 3 4 3 5 6 4 1 2 1 4 8 10 8 8 11 12 12 11 10 10 10 10 10 10 11 11 10 10 12 12 11 10 9 9 8 8 7 7 7 6 6 11 15 15 15 18
9 9 8 8 8 8 8 9 9 9 9 9 9 8 7 8 9 10 11 11 10 10 9 9 7 6 6 7 7 6 6 6 6 5 4 4 4 5 6 6 6 5 4 4 6 6 4 3 3 6 11 11 10 10 12 13 11 9 9 8 8 9 9 9 10 10 10 10 11 11 11 10 9 9 8 7 6 5 4 5 4 4 8 12 13 12 14
9 8 8 9 8 8 9 10 11 11 11 10 8 7 9 10 12 12 11 10 10 10 10 9 7 6 5 5 6 8 9 9 8 7 7 7 7 8 9 9 8 6 4 4 5 6 6 5 5 10 12 10 8 10 12 12 9 8 7 8 8 9 9 9 10 10 10 9 9 9 8 7 7 7 6 5 5 5 3 2 2 4 7 10 12 12 11
8 8 8 8 9 9 8 9 10 11 12 11 10 9 9 11 12 11 10 11 11 11 11 10 8 6 6 6 5 7 9 10 10 9 8 6 5 6 7 7 7 7 6 6 6 6 7 8 8 9 8 7 7 9 10 10 9 8 8 8 9 9 9 9 9 8 8 8 7 7 7 6 7 7 7 6 6 6 4 3 2 3 4 5 8 11 13
10 10 9 8 9 9 9 9 10 11 12 13 12 11 11 11 11 10 9 10 10 10 11 10 9 7 8 9 9 9 10 10 11 11 9 6 4 4 4 6 7 7 7 6 6 5 5 6 6 4 4 4 5 6 6 6 6 6 6 6 6 7 8 9 8 7 7 8 7 8 8 7 7 6 6 6 6 6 5 5 7 7 6 6 6 8 10
11 11 11 10 9 9 10 10 10 10 11 12 12 12 12 11 11 11 10 10 10 10 10 10 11 10 9 10 10 10 10 10 11 12 11 10 7 5 3 3 6 7 5 5 5 5 4 4 3 2 3 3 3 3 3 3 4 5 5 5 5 5 6 8 8 7 8 8 9 9 9 8 6 5 5 5 6 7 7 7 8 7 5 4 3 4 4
10 11 10 9 9 9 10 10 10 9 10 11 11 12 12 11 11 11 11 11 11 11 10 11 12 12 11 11 10 8 7 9 11 10 10 12 13 11 7 5 6 7 7 7 8 7 6 4 3 4 4 3 3 3 2 2 3 5 5 6 6 6 7 8 8 8 8 8 6 7 10 9 8 9 10 8 6 4 4 3 1 3 4 4 4 3 5
10 10 9 9 9 9 9 9 9 9 8 9 10 11 11 11 11 11 11 11 11 12 11 11 11 11 11 11 10 8 8 10 12 9 6 7 11 12 10 8 8 9 9 9 9 9 7 5 4 5 5 4 5 3 0 1 4 6 5 6 6 6 6 6 6 6 7 6 5 6 7 5 4 6 9 7 3 4 4 1 1 3 3 4 5 5 5
10 11 11 10 9 8 8 8 8 9 8 8 9 10 10 10 10 10 10 10 10 10 11 10 10 10 10 11 10 9 9 10 11 9 5 4 7 9 9 9 9 10 10 9 8 7 6 5 4 5 4 4 4 1 4 2 6 8 6 6 7 7 7 8 8 7 6 5 5 6 7 4 2 2 4 3 3 5 4 3 3 4 3 2 3 3 3
11 11 11 9 8 8 9 9 9 10 9 8 8 10 10 9 8 7 7 7 8 9 10 10 8 8 9 11 11 11 10 10 10 10 8 7 8 8 8 9 9 9 9 8 8 7 5 4 3 3 3 3 2 7 9 2 7 7 3 3 3 4 5 7 9 9 8 7 6 5 6 5 6 5 5 5 4 4 4 4 3 2 4 4 2 1 3
10 10 9 8 8 8 9 9 9 10 9 6 6 7 8 8 7 6 7 7 6 5 6 7 7 7 10 13 14 12 10 10 10 11 10 8 9 8 8 9 9 8 7 6 6 6 5 3 3 2 1 1 4 10 11 5 4 5 2 3 1 0 2 3 4 5 5 5 4 4 3 2 4 3 6 8 8 6 4 5 9 11 10 8 7 5 4
9 8 8 9 9 8 8 9 9 8 6 6 7 7 7 8 8 9 10 10 6 3 4 9 12 12 13 15 15 13 11 10 9 11 14 13 12 10 8 9 10 10 8 6 5 4 3 2 2 2 2 2 5 8 9 7 2 1 2 2 1 3 4 4 5 5 5 4 5 6 4 3 4 4 4 6 9 11 11 10 9 8 5 4 4 4 3
11 9 9 11 11 10 9 9 7 6 6 8 9 9 9 9 9 11 13 14 11 8 10 14 16 14 12 13 14 14 14 12 10 9 12 13 13 10 8 8 9 9 8 4 2 1 0 1 2 1 2 3 6 7 7 7 5 4 3 3 4 6 7 5 3 3 4 5 8 10 10 8 8 9 9 7 6 6 6 5 5 3 2 5 7 5 1
8 9 9 8 9 10 10 8 7 8 11 12 11 11 11 10 9 11 12 14 13 12 12 13 14 14 12 12 12 12 13 14 13 11 11 12 12 11 10 10 12 12 11 9 5 2 5 5 1 1 2 3 5 6 6 7 6 6 6 6 5 7 8 6 2 1 2 5 6 6 8 9 10 10 9 7 6 5 4 4 4 4 3 5 6 7 7
5 5 7 7 8 11 11 10 9 9 11 11 11 12 12 10 8 8 10 11 12 11 11 12 12 12 12 12 12 12 13 14 15 14 12 12 13 13 11 12 14 15 15 16 15 8 1 3 2 3 4 4 6 6 6 7 7 7 8 9 9 7 6 6 5 5 7 8 7 6 6 7 8 8 8 9 9 8 7 7 8 8 7 7 8 10 11
7 9 10 10 10 10 10 10 10 10 9 9 10 10 10 9 8 7 8 9 10 10 10 11 11 12 12 11 10 10 11 13 14 14 13 12 13 13 12 12 13 13 13 14 15 13 11 10 8 4 2 4 7 7 6 7 8 7 8 9 10 10 10 10 9 8 8 9 8 9 10 11 10 10 11 12 11 9 9 9 10 10 10 10 10 10 10
Wind_Direction
224 236 238 237 232 221 220 222 218 214 218 228 232 232 229 225 234 244 230 221 237 248 252 253 244 225 231 229 199 197 227 243 236 168 146 159 169 166 161 164 169 175 176 172 176 182 182 181 184 186 188 193 198 200 198 197 197 194 190 190 189 186 186 188 190 192 195 198 199 200 199 198 199 201 203 204 205 201 199 199 201 201 199 198 199 200 200
213 221 233 242 244 234 224 223 225 222 217 220 228 237 236 231 234 242 238 227 230 239 244 251 258 259 250 241 213 197 206 225 244 207 177 190 188 168 161 173 177 179 176 167 169 177 179 181 184 187 190 191 196 200 196 195 198 196 189 187 188 186 186 188 189 192 196 198 200 200 198 198 200 202 203 205 205 203 200 200 201 203 201 198 198 199 200
228 219 221 230 241 247 244 233 226 230 231 223 219 224 234 237 237 239 241 239 235 238 239 243 252 261 264 260 244 218 201 203 226 240 231 226 213 182 170 176 178 180 180 170 166 170 177 184 186 189 192 192 195 201 199 196 198 196 188 184 186 187 187 187 188 190 194 197 199 200 199 200 202 203 204 205 205 204 201 201 202 204 202 198 196 198 198
242 231 222 221 227 240 250 247 235 231 235 237 228 214 214 229 243 243 240 238 232 228 233 239 239 239 247 256 257 252 230 205 210 225 236 243 238 191 169 173 179 182 182 175 170 173 179 183 186 190 193 192 194 201 203 199 197 197 190 183 185 188 186 185 186 189 193 195 196 198 199 201 202 203 204 206 206 206 204 203 202 202 203 199 195 195 197
232 238 238 229 224 230 236 239 241 240 240 245 248 236 215 217 232 247 247 245 245 227 226 236 236 230 233 241 247 253 249 225 213 218 223 230 236 210 172 171 182 187 184 180 175 176 179 182 187 191 192 194 198 203 206 200 196 197 192 183 184 186 183 182 185 187 190 191 192 195 197 199 200 201 203 204 206 207 208 206 201 201 202 199 194 195 197
226 232 241 240 233 234 234 229 236 242 246 246 245 246 238 225 216 220 232 243 254 256 248 244 238 233 238 242 241 247 255 252 235 236 235 226 227 227 196 174 179 184 183 182 178 177 181 186 191 191 191 195 200 205 210 204 196 197 194 183 181 182 180 180 182 183 185 186 188 190 191 193 194 195 198 201 202 204 205 203 200 199 200 198 197 198 201
225 221 227 231 230 233 242 248 246 244 249 254 253 250 250 247 237 225 222 226 229 231 245 257 256 252 256 260 253 244 250 258 256 258 262 241 221 224 213 185 179 178 179 179 177 180 184 186 189 189 191 195 198 202 209 206 197 198 194 180 176 178 177 177 177 178 179 180 181 181 182 183 185 188 192 194 195 196 199 200 199 198 198 198 199 202 204
224 216 215 226 239 247 244 244 246 241 238 245 252 251 249 253 256 254 263 289 255 230 228 236 244 251 254 259 263 253 248 251 253 256 259 251 236 226 223 212 187 175 177 179 178 180 182 182 185 187 191 195 196 199 206 204 197 197 190 173 170 172 172 171 170 171 171 171 171 171 171 174 178 183 186 188 191 194 196 197 196 194 196 198 202 204 204
216 221 218 227 248 255 243 235 237 243 240 235 239 246 248 250 260 274 298 313 308 300 262 233 225 227 234 237 244 249 249 250 251 253 255 255 254 246 239 238 204 173 176 179 176 177 178 179 184 186 188 192 192 195 201 199 193 191 179 166 165 166 165 164 163 165 164 162 163 165 167 170 175 180 184 186 190 193 193 191 190 190 192 198 204 207 206
202 220 222 223 232 234 231 229 233 259 313 333 287 268 261 266 297 318 313 300 319 339 329 300 264 234 231 225 219 231 240 243 245 249 253 255 258 259 257 255 225 174 174 177 173 174 177 180 183 183 183 187 188 191 195 193 187 182 170 163 164 162 160 161 163 165 165 163 165 168 170 174 176 180 186 190 190 190 189 192 197 199 199 203 208 207 206
195 217 223 220 225 227 212 197 214 230 239 31 354 284 266 340 1 3 359 349 352 351 337 336 348 339 272 245 230 225 229 234 237 242 247 248 250 251 252 256 249 190 174 173 170 172 178 179 180 180 180 183 185 187 190 188 183 176 164 161 164 161 160 162 164 166 168 169 170 171 172 175 176 177 182 187 188 189 192 198 205 204 201 202 204 204 207
199 212 228 230 229 214 161 158 191 213 183 103 269 250 252 16 14 17 14 359 3 3 348 342 340 330 323 299 280 265 246 235 232 241 244 240 240 237 234 244 248 210 173 168 168 172 177 177 177 178 178 179 183 184 184 183 180 173 162 160 163 162 161 162 162 165 169 170 171 170 170 172 173 173 174 177 181 185 189 197 204 203 197 196 198 199 205
205 202 221 242 238 200 164 176 200 201 188 203 229 233 277 7 355 3 4 353 1 1 346 341 324 305 308 304 303 303 283 254 245 261 276 285 271 252 231 233 234 205 168 165 168 171 174 174 175 177 176 176 179 180 177 177 178 171 161 158 159 159 159 160 159 162 167 168 169 168 167 168 169 169 170 171 171 174 179 187 193 192 188 188 189 190 200
217 213 221 236 238 192 171 187 204 207 218 229 228 238 356 344 338 350 353 349 353 346 333 330 316 309 311 305 302 308 307 304 308 307 356 9 334 302 244 175 186 170 154 159 164 166 170 172 174 174 172 169 170 173 172 171 171 166 158 155 155 155 157 159 160 162 164 166 166 165 166 169 168 166 167 167 166 170 175 176 172 167 169 175 179 190 211
220 222 222 227 237 193 174 183 193 202 217 224 60 24 350 347 356 357 352 350 346 331 322 319 311 308 307 303 311 332 346 353 352 333 17 60 28 2 53 94 120 133 133 148 161 164 168 173 174 168 161 158 161 166 166 162 162 159 154 152 151 150 152 155 158 159 160 161 164 165 167 170 166 161 161 161 164 168 165 154 147 148 161 176 187 213 235
225 225 223 232 242 175 175 185 186 170 133 68 57 17 357 10 13 5 359 356 348 334 320 309 306 309 299 288 323 11 20 22 16 356 357 45 66 74 92 113 129 135 133 149 166 167 167 171 168 158 153 153 155 158 158 154 153 152 150 147 145 144 147 150 151 153 155 159 163 164 165 165 158 154 156 157 158 159 154 146 143 145 158 180 198 217 232
263 236 202 37 68 152 174 192 176 129 94 60 39 10 14 29 26 20 18 8 359 353 343 322 308 319 322 329 16 24 22 35 36 14 4 12 17 14 21 77 112 122 138 158 158 145 142 145 145 145 148 147 142 141 145 145 144 142 142 140 139 138 140 142 144 147 151 154 155 155 158 159 152 150 153 151 148 148 149 150 152 154 167 191 206 215 220
343 21 83 91 91 117 143 142 134 135 118 76 48 40 43 47 41 36 32 19 5 2 0 351 343 343 351 16 32 28 23 44 55 42 18 4 5 9 351 326 108 134 160 168 140 116 111 112 113 121 132 132 125 125 131 134 134 135 135 133 133 134 136 138 142 147 147 146 146 147 151 152 148 147 147 144 142 143 146 152 157 165 179 196 206 210 215
6 345 39 100 93 83 97 98 82 100 119 111 82 61 60 61 54 49 46 35 21 17 21 23 25 28 38 53 53 41 38 55 71 66 38 12 43 70 51 289 268 145 153 145 127 116 109 110 112 112 115 116 116 122 127 127 128 131 131 129 128 130 133 135 138 141 138 135 136 136 136 140 143 143 141 140 141 145 150 158 166 176 190 202 207 208 209
44 315 308 69 87 72 68 79 61 52 89 113 108 85 81 82 70 59 57 54 44 34 32 36 38 37 40 47 52 52 49 50 60 66 56 47 51 57 54 40 26 31 85 111 118 115 110 117 122 120 115 115 120 126 127 126 126 126 124 123 122 123 126 128 129 130 129 130 129 125 124 133 141 141 140 141 143 150 161 174 181 188 199 208 211 209 198
60 310 302 74 94 78 68 75 68 50 57 77 85 84 87 89 82 72 67 64 58 50 45 44 43 37 31 28 32 43 47 46 49 49 48 56 56 48 52 60 57 49 66 89 99 100 101 110 116 117 118 122 125 126 125 124 122 118 117 120 121 120 121 122 122 124 128 130 125 118 114 117 118 122 130 140 145 148 159 175 184 195 209 213 215 213 194
120 245 291 358 90 84 67 65 68 63 60 64 67 67 69 71 70 68 66 60 53 48 46 48 53 51 37 25 28 36 35 35 53 61 58 63 62 51 55 68 72 68 71 78 85 91 98 106 110 112 115 118 119 119 119 119 117 117 118 120 120 121 125 126 127 132 137 133 126 122 122 120 116 113 116 128 143 149 151 156 165 190 216 211 208 202 181
227 184 207 84 91 90 68 53 56 59 61 68 71 68 67 67 64 63 63 57 50 45 38 36 47 62 63 45 31 35 37 37 50 68 76 81 84 77 71 72 72 69 71 75 78 82 91 100 104 106 107 108 108 110 112 114 118 121 123 124 124 127 129 130 134 141 141 133 128 130 133 132 127 120 114 114 126 139 140 142 153 172 185 181 177 176 176
305 130 117 91 88 88 74 60 56 50 49 62 70 67 66 66 63 64 64 58 53 51 40 29 30 39 55 59 45 33 43 48 48 59 71 75 81 84 80 77 77 75 72 72 72 72 75 81 86 91 95 96 99 105 111 117 122 124 125 126 127 125 123 126 132 135 131 129 132 136 138 137 131 123 117 112 111 117 123 129 143 156 163 166 167 172 180
80 103 91 82 89 91 81 69 62 54 49 54 60 61 63 64 62 62 61 55 52 52 46 36 27 21 24 36 40 37 40 41 40 49 63 67 70 74 75 74 75 76 78 79 79 78 78 78 80 84 87 88 93 102 110 117 123 126 127 126 122 119 122 127 128 124 125 130 133 135 138 140 134 129 128 125 120 120 125 130 137 140 142 148 157 162 169
62 136 130 113 101 93 84 73 64 59 54 52 52 54 57 60 65 68 66 63 59 56 51 47 40 28 20 21 26 33 39 39 37 42 53 60 60 62 66 70 72 74 76 78 80 84 87 87 88 91 92 95 101 106 111 119 127 128 125 124 123 124 130 132 127 125 131 137 137 138 143 146 145 144 147 147 144 140 136 135 137 137 134 137 145 152 157
40 178 149 110 88 78 78 77 70 66 62 56 53 53 53 54 60 66 69 69 66 64 60 53 48 41 31 24 22 24 31 35 36 37 41 46 50 52 56 63 67 70 71 70 71 77 85 89 92 96 99 103 110 115 120 126 123 114 112 118 123 128 133 133 133 138 146 147 146 147 150 155 161 161 157 156 156 153 151 149 144 137 136 141 146 151 156
48 39 97 101 99 97 96 95 89 82 75 66 60 58 56 55 53 53 57 58 57 59 59 52 48 45 34 27 25 25 26 28 28 30 31 32 36 42 49 56 62 64 65 65 65 68 77 86 91 93 97 104 111 118 124 123 114 109 113 121 126 131 135 137 139 143 147 147 148 151 156 163 170 166 159 160 163 162 164 163 151 140 143 152 154 156 164
57 48 61 92 104 101 99 99 93 86 81 77 72 66 59 58 56 51 47 44 43 48 49 44 45 46 39 31 26 24 25 23 18 19 22 21 23 29 35 46 61 64 60 58 58 60 69 81 88 93 99 107 113 118 123 121 116 116 122 126 129 132 132 132 133 135 137 141 145 153 161 165 162 157 159 165 169 171 172 162 147 141 149 159 158 157 164
58 61 66 74 78 75 73 73 74 76 77 78 78 74 69 66 63 56 47 40 38 43 46 44 42 42 41 39 32 24 23 17 7 8 14 15 17 21 21 27 49 63 59 55 55 59 69 79 85 92 101 108 113 117 121 120 118 120 120 121 124 127 123 120 123 126 129 133 140 150 159 159 154 159 165 168 172 177 167 148 139 138 146 156 158 157 162
56 61 66 70 72 70 65 59 59 62 63 64 68 72 74 73 71 66 56 44 36 40 46 50 49 41 35 34 30 26 20 8 356 357 8 12 14 17 16 19 32 45 47 51 52 53 62 71 75 85 100 108 113 120 122 115 113 118 120 118 118 121 120 121 125 128 132 137 143 151 157 156 158 166 167 168 178 176 147 134 135 137 142 151 158 159 163
73 64 60 60 64 68 66 60 56 55 52 51 54 56 59 65 73 81 82 67 45 39 41 46 51 48 35 23 18 22 23 7 350 351 6 13 12 9 8 12 21 28 35 47 50 48 51 53 53 70 102 116 119 126 125 114 111 116 119 118 118 121 125 130 133 134 139 148 153 157 161 160 162 167 167 170 178 164 134 130 137 140 145 156 162 162 169
74 65 56 53 55 60 60 56 53 54 52 51 52 53 54 57 64 78 103 118 102 65 50 39 28 29 38 25 358 348 359 355 342 351 17 16 3 358 1 2 3 10 23 33 35 40 49 45 41 69 111 123 126 132 131 122 119 121 119 120 125 129 131 136 139 139 146 158 161 160 161 159 157 159 160 160 156 141 132 137 145 148 154 163 164 168 179
75 78 78 76 71 67 62 57 56 59 58 55 55 54 55 58 58 59 72 91 98 100 105 96 26 15 26 356 309 294 307 342 352 20 34 16 353 349 355 359 4 22 38 36 24 27 43 39 28 36 90 131 149 156 150 138 134 132 127 127 135 137 132 135 144 149 156 158 150 139 138 140 142 148 154 155 153 147 143 147 154 159 163 163 164 174 185
89 95 97 94 83 74 68 64 64 66 66 65 64 59 53 55 57 54 52 51 56 79 107 123 132 141 170 267 276 208 150 129 107 55 27 12 355 350 353 359 19 44 52 50 46 51 62 55 14 344 321 234 181 174 159 136 126 127 126 128 137 143 142 145 150 149 140 134 129 125 128 130 133 140 146 148 151 152 152 157 164 166 159 155 163 176 181
81 84 86 84 77 71 71 71 72 74 75 74 73 69 62 56 52 53 56 52 48 55 67 71 84 120 150 167 104 104 110 122 127 127 144 223 275 319 341 44 91 74 67 59 54 58 69 86 321 308 303 73 102 129 148 132 117 117 122 125 132 140 143 138 131 123 123 129 135 137 136 133 134 141 148 151 154 157 160 165 172 166 150 149 163 176 178
75 72 73 75 76 78 81 83 84 83 81 79 76 73 72 68 57 51 53 52 47 50 58 59 59 65 64 67 90 109 118 118 114 111 121 177 223 189 132 127 115 111 108 79 48 53 63 39 323 8 86 83 71 79 119 131 123 121 126 129 133 139 138 131 127 128 133 136 132 127 128 133 140 149 154 154 154 159 164 171 180 163 139 140 153 169 174
79 73 72 71 70 71 72 73 73 72 70 68 66 63 68 77 74 62 53 45 40 45 58 64 60 47 34 31 41 61 83 96 94 84 68 51 50 67 76 65 55 66 72 47 42 53 50 356 4 67 86 86 75 79 101 115 122 128 135 138 142 143 142 140 139 138 136 134 133 139 149 154 153 155 159 159 159 168 173 175 185 174 143 137 144 157 167
92 92 89 84 77 70 66 66 68 69 70 69 64 54 53 60 65 64 59 48 37 37 49 59 60 53 46 44 42 41 44 49 55 62 62 53 51 65 73 69 66 72 65 46 55 57 37 26 63 86 91 93 90 87 93 103 114 119 122 128 134 137 141 144 143 140 141 146 152 160 164 156 147 154 164 160 157 162 151 118 149 189 178 164 161 165 171
90 91 89 86 83 80 76 71 66 63 63 64 64 61 58 56 56 58 57 50 41 37 40 44 45 38 35 44 51 48 42 38 38 47 58 58 58 73 80 73 67 65 55 46 57 62 50 49 71 89 92 93 98 97 95 100 109 114 119 129 136 138 141 145 146 148 154 157 157 158 160 158 161 169 169 158 161 172 165 131 146 218 232 207 184 178 180
79 81 80 77 76 74 71 70 69 64 59 57 56 58 61 62 62 62 60 56 51 47 44 44 45 44 43 47 51 49 49 50 49 52 59 64 57 55 58 44 33 35 40 36 37 53 63 58 63 83 96 91 97 106 106 106 116 126 131 140 151 155 153 155 163 168 162 161 170 178 175 168 166 169 166 163 172 182 181 172 180 194 207 216 219 210 198
78 79 78 76 75 74 70 70 71 69 65 63 60 58 60 62 63 63 63 60 58 58 55 54 56 56 56 61 63 56 52 58 60 58 62 72 77 75 72 41 24 23 31 31 28 41 65 67 69 118 136 122 113 118 111 104 124 142 149 156 165 168 165 169 177 174 165 175 191 186 159 141 139 154 169 183 195 200 199 197 195 196 194 193 217 246 250
77 78 80 78 75 76 77 78 77 75 71 69 67 62 58 58 61 65 65 60 57 56 56 57 62 61 57 56 60 57 50 60 67 61 56 63 72 75 80 78 60 50 52 57 60 67 73 74 85 106 113 121 140 148 145 133 143 157 167 164 161 169 174 173 172 172 174 185 188 156 140 145 167 180 185 198 211 196 181 174 96 22 10 12 9 343 324
67 70 75 76 75 78 81 81 82 81 75 71 70 69 63 58 56 58 61 61 60 57 52 51 57 65 64 61 59 52 43 51 63 64 52 53 61 60 55 54 55 52 50 54 64 70 66 64 82 96 104 125 141 141 275 179 147 147 153 154 160 176 179 163 162 183 191 187 165 143 148 179 209 179 173 184 174 113 109 98 65 76 53 12 359 340 325
72 70 72 75 81 85 81 77 82 89 88 81 75 72 70 67 63 60 62 66 65 63 57 50 48 56 66 70 69 66 63 66 70 69 64 60 56 50 46 46 44 37 35 44 60 70 68 68 88 104 113 124 120 28 318 260 153 151 166 178 179 184 179 168 174 195 205 203 190 168 161 182 222 153 126 110 85 92 101 100 90 85 59 345 319 309 325
71 70 71 73 75 76 71 68 71 74 74 72 68 62 59 59 62 69 76 77 72 71 70 62 49 48 60 66 61 53 56 67 70 66 70 88 90 75 63 59 49 35 33 44 58 65 67 69 81 101 124 131 8 331 321 303 143 148 204 247 207 182 184 187 191 195 196 202 205 176 147 173 211 199 145 123 119 104 91 102 132 185 240 240 220 255 323
74 74 73 66 63 68 75 76 72 66 58 53 57 57 46 35 38 62 80 83 89 100 94 78 66 66 73 73 64 46 37 44 43 28 26 60 86 81 68 65 60 49 46 58 64 59 57 54 47 47 119 212 309 326 327 333 133 150 215 286 316 226 223 220 218 219 213 201 187 160 139 197 230 193 135 141 160 172 182 213 225 228 221 201 184 193 221
60 71 76 70 62 58 59 61 61 60 53 49 50 40 15 4 20 41 42 32 25 48 76 68 65 67 70 71 64 46 34 42 40 12 5 21 45 49 47 56 57 47 44 61 72 56 33 24 24 21 352 310 310 318 320 319 315 177 189 204 235 255 248 226 213 221 224 200 170 166 179 218 237 223 205 203 202 198 203 222 239 239 227 235 262 257 203
29 30 45 57 59 52 45 46 47 37 26 30 35 22 358 355 20 32 21 10 13 33 55 58 55 50 52 62 61 44 31 37 45 29 18 26 32 28 26 37 33 19 17 37 89 149 278 349 344 326 295 293 298 302 302 302 306 307 286 243 224 230 238 236 205 188 209 213 200 193 197 213 226 223 223 235 240 219 211 235 264 270 289 312 316 318 225
39 26 23 36 54 55 44 38 41 31 15 9 11 9 0 3 24 31 17 8 12 24 35 42 40 31 26 34 42 35 25 23 24 25 29 30 21 10 9 17 13 5 1 359 347 227 178 171 199 294 274 273 283 288 290 290 291 295 298 291 263 231 228 233 221 182 247 267 255 217 203 212 224 223 221 232 248 247 242 256 265 268 285 294 291 283 270
52 34 14 17 47 59 50 35 35 36 22 11 12 14 7 3 17 30 22 12 9 11 18 26 28 22 15 14 15 14 14 12 10 11 17 19 10 1 2 9 9 7 5 1 357 358 72 163 200 210 213 252 278 281 281 285 283 278 283 292 292 278 262 262 256 238 239 256 274 276 259 251 251 248 248 251 250 244 242 247 250 254 264 264 257 263 275
48 53 43 28 31 48 49 34 28 33 32 25 24 23 13 0 1 16 25 21 14 11 12 11 5 2 6 9 5 1 3 3 358 354 359 6 7 3 0 0 1 4 5 1 356 354 356 355 346 333 331 345 338 327 312 303 294 280 275 282 287 287 285 285 284 272 255 247 248 254 260 268 274 272 269 267 262 252 247 249 248 246 250 253 251 253 267